Погода в Окаре

Пакистан     30°47′58″N   73°26′42″E
темп.,
°C
ветер,
м/с
пор.,
м/с
влажн.,
%
обл.,
%
осадки,
мм/ч
давл.,
гПа
погр.,
м
9 мая, вс
вс923:00+29ю1134100 0.4 100511
02:00+28вюв22315 0.0 100413
05:00+27ююв223157 0.0 100411
08:00+33ююв33235 0.0 1006440
11:00+39ю45165 0.0 10052513
14:00+41ююз341328 0.0 10024360
17:00+41юз45119 0.0 9994207
20:00+34в572198 1.1 1001225
10 мая, пн
пн1023:00+28юв49404 1.1 1002219
02:00+28юв223899 0.0 100134
05:00+27в473954 0.0 1003126
08:00+33юв672563 0.0 1003575
11:00+40ю43146 0.0 10011770
14:00+43з141024 0.0 9994677
17:00+43сз33965 0.0 9954785
20:00+34ююв6111924 0.0 998277
11 мая, вт
вт1123:00+33ююз614240 0.0 999431
02:00+31зюз5132359 0.0 999347
05:00+29зсз222842 0.0 99911
08:00+34ююз452246 0.0 1002680
11:00+41ююз441499 0.0 10002055
14:00+43ююз351099 0.0 9975231
17:00+38зюз15141899 0.1 9962447
20:00+34ююв71121100 0.5 997311
12 мая, ср
ср1223:00+31св81030100 0.6 999441
02:00+28св2339100 0.3 99952
05:00+28вюв51239100 0.9 999384
08:00+32юв5630100 0.0 1000515
11:00+36ююз2222100 0.0 10001602
14:00+37в552036 0.0 9982940
17:00+23ю111663100 0.3 1000541
20:00+27ююв4846100 0.5 999420
13 мая, чт
чт1323:00+26в3844100 0.5 999268
02:00+25вюв3751100 0.1 999199
05:00+24ссв2256100 0.7 100124
08:00+28в334675 0.0 1002673
11:00+34в442923 0.0 10021522
14:00+37вюв43220 0.0 9992471
17:00+37ююз43220 0.0 9983110
20:00+33ююв22310 0.0 99919